Terug naar catalogus

OPS 4682 DEB

ActiefPO
NORAD 14716·DEBRIS·🇺🇸 United States

Gelanceerd Apr 3, 1965 vanaf Vandenberg Space Force Base

Loading…

Volgende Passages (komende 24 uur)

TLE

VersSource: Space-Track

Epoch: Sep 13, 2026, 15:05 UTC

1 14716U 65027P   26256.62902648  .00000902  00000-0  29815-2 0  9995
2 14716  90.2575  16.2302 0030175  82.5305 290.7103 12.99693798450961

Volg OPS 4682 DEB in realtime met AllMySat

Download on the App Store